Flag for France Weather past 2 weeks in Saint-Étienne, France

Now
57 °F

Clear.


Feels Like: 57 °F
Forecast: 50 / 62 °F
Wind: 2 mph from Southeast

Location: St-Etienne Boutheon

Current Time: Sep 21, 2014 at 6:17:32 AM

Latest Report: Sep 21, 2014 at 5:30 AM


Visibility: N/A

Pressure: 30.09 "Hg

Humidity: 94%

Dew point: 55 °F

Location of Saint-ÉtienneLocation

Historic Weather in Saint-Étienne — Graph

°F

Saint-Étienne temperature yesterday

Maximum temperature yesterday: 79 °F (at 2:00 PM)
Minimum temperature yesterday: 57 °F (at 6:00 AM)
Average temperature yesterday: 66 °F

Past Weeks' High & Low Weather Summary

 TemperatureHumidityPressure
High86 °F (Sep 7, 5:00 PM)100% (Sep 12, 8:30 AM)30.12 "Hg (Sep 12, 8:30 AM)
Low46 °F (Sep 12, 6:30 AM)34% (Sep 16, 5:30 PM)29.80 "Hg (Sep 17, 5:30 PM)
Average65 °F72%29.98 "Hg
* Reported Sep 6 5:30 AM — Sep 21 5:30 AM, Saint-Étienne, Weather by CustomWeather, © 2014

Note: Actual official high and low records may vary slightly from our data, if they occured in-between our weather recording intervals... More about our weather records

Advertising

Saint-Étienne weather history for previous 24 hours

 ConditionsComfort  
Time TempWeatherWind HumidityBarometerVisibility
5:30 AM
Sep 21
57 °FClear.2 mph94%30.09 "HgN/A
4:30 AM57 °FMostly cloudy.3 mph94%30.09 "Hg6 mi
4:00 AM57 °FPassing clouds.2 mph94%30.09 "HgN/A
3:30 AM61 °FClear.6 mph83%30.07 "HgN/A
3:00 AM63 °FClear.5 mph77%30.07 "HgN/A
2:30 AM63 °FClear.5 mph77%30.07 "HgN/A
2:00 AM63 °FClear.9 mph77%30.07 "HgN/A
1:30 AM63 °FClear.6 mph83%30.09 "HgN/A
1:00 AM61 °FClear.5 mph88%30.09 "HgN/A
12:30 AM63 °FClear.No wind83%30.09 "HgN/A
12:00 AM63 °FClear.6 mph83%30.09 "HgN/A
11:30 PM
Sep 20
63 °FClear.5 mph88%30.09 "HgN/A
11:00 PM63 °FClear.3 mph88%30.09 "HgN/A
10:30 PM63 °FClear.3 mph88%30.09 "HgN/A
10:00 PM64 °FClear.6 mph83%30.07 "HgN/A
9:30 PM64 °FLight rain. Clear.6 mph88%30.07 "HgN/A
9:00 PM66 °FRain. Mostly cloudy.5 mph83%30.07 "Hg4 mi
8:30 PM66 °FLight rain. Cloudy.3 mph78%30.07 "HgN/A
8:00 PM68 °FLight rain. Cloudy.2 mph73%30.07 "HgN/A
7:30 PM68 °FMild.3 mph73%30.04 "HgN/A
3:30 PM77 °FScattered clouds.8 mph44%30.04 "HgN/A
3:00 PM77 °FScattered clouds.8 mph44%30.04 "HgN/A
2:30 PM77 °FScattered clouds.6 mph47%30.04 "HgN/A
2:00 PM79 °FScattered clouds.3 mph45%30.04 "HgN/A
1:30 PM77 °FScattered clouds.3 mph47%30.04 "HgN/A
1:00 PM77 °FPassing clouds.5 mph47%30.04 "HgN/A
12:30 PM75 °FScattered clouds.5 mph50%30.04 "HgN/A
12:00 PM75 °FScattered clouds.2 mph57%30.04 "HgN/A
11:30 AM73 °FScattered clouds.1 mph61%30.04 "HgN/A
11:00 AM72 °FSunny.2 mph65%30.04 "Hg10 mi
10:30 AM70 °FSunny.1 mph73%30.04 "Hg10 mi
10:00 AM68 °FSunny.1 mph73%30.04 "Hg10 mi
9:30 AM64 °FSunny.No wind83%30.04 "Hg10 mi
9:00 AM63 °FSunny.3 mph83%30.01 "Hg10 mi
8:30 AM61 °FSunny.2 mph88%30.01 "Hg10 mi
8:00 AM61 °FPassing clouds.6 mph88%30.01 "HgN/A
7:30 AM61 °FPartly cloudy.8 mph88%30.01 "HgN/A
7:00 AM61 °FPartly cloudy.8 mph88%29.98 "HgN/A
6:30 AM59 °FPartly cloudy.2 mph88%29.98 "HgN/A
6:00 AM57 °FPartly cloudy.1 mph94%29.98 "HgN/A
Weather by CustomWeather, © 2014

See weather overviewHow to use our weather pages